Terminal Aerodrome Forecast
Issued by NWS Sterling, VA

Current Version | Previous Version | Graphics & Text | Print | Product List | Glossary On
Versions: 1 2 3 4 5 6 7 8 9 10 11 12 13 14 15 16 17 18 19
000
FTUS41 KLWX 301120
TAFMRB
TAF
KMRB 301120Z 3012/0112 07004KT 3SM BR OVC008
     FM301700 11006KT P6SM OVC015
     FM301900 13006KT P6SM OVC025
     FM302300 14006KT 6SM -RA BR OVC020
     FM010000 14006KT 3SM -RA BR OVC010
     FM010300 14007KT 3SM RA BR OVC008
     FM010600 14008KT 3SM RA BR OVC003=

USA.gov is the U.S. government's official web portal to all federal, state and local government web resources and services.